Hourly Weather Roundup
Issued by NWS Central Illinois

Home | Current Version | Previous Version | Text Only | Print | Product List | Glossary On
Versions: 1 2 3 4 5 6 7 8 9 10 11 12 13 14 15 16 17 18 19 20 21 22 23 24 25 26 27 28 29 30 31 32 33 34 35 36 37 38 39 40 41 42 43 44 45 46 47 48 49 50
000
NZUS43 KILX 280110
HWRILX

AREA WEATHER ROUNDUP
NATIONAL WEATHER SERVICE, LINCOLN IL
800 PM CDT WED AUG 27 2014


CITY           SKY/WX    TMP DP  RH WIND       PRES   REMARKS
BLOOMINGTON    CLEAR     73  67  81 NE6       30.10R
CHAMPAIGN      MOCLDY    76  69  79 NE9       30.08R
DECATUR        PTCLDY    76  73  91 N5        30.08R
FLORA          TSTM      75  70  83 S3        30.08R
GALESBURG      PTCLDY    73  67  82 CALM      30.09R
JACKSONVILLE   CLOUDY    79  75  86 CALM      30.09R HX  83
LACON          PTCLDY    73  66  78 NE5       30.08R
LAWRENCEVILLE  CLOUDY    79  72  79 NW3       30.05R HX  82
LITCHFIELD     MOCLDY    74  71  88 W6        30.09F
$$


CITY           SKY/WX    TMP DP  RH WIND       PRES   REMARKS
LINCOLN        PTCLDY    76  70  82 NE3       30.05R
MACOMB         MOCLDY    75  71  89 CALM      30.10R
MATTOON        LGT RAIN  75  73  93 CALM      30.06R
MT CARMEL AP   CLOUDY    82  77  83 NW5       30.05R THUNDER HX  91
OLNEY-NOBLE AP CLOUDY    75  70  83 NE5       30.05F
PARIS          CLOUDY    77  73  87 N3        30.09R
PEORIA         CLEAR     77  66  68 E6        30.08R
PONTIAC        PTCLDY    73  72  94 CALM      30.08R
RANTOUL        PTCLDY    76  67  72 NE5       30.10R
ROBINSON       CLOUDY    79  74  84 NW3       30.07R HX  82
SPRINGFIELD    PTCLDY    77  73  87 CALM      30.07R
TAYLORVILLE    CLEAR     72  70  94 CALM      30.08R
$$

...REGIONAL REPORTS...


CITY           SKY/WX    TMP DP  RH WIND       PRES   REMARKS
CHICAGO O`HARE MOCLDY    70  59  68 NE9       30.10S
KANKAKEE       PTCLDY    70  63  78 NE8       30.10R
MOLINE         PTCLDY    74  62  66 NE7       30.08S
MOUNT VERNON   CLOUDY    75  68  78 NE5       30.06S
PITTSFIELD     CLOUDY    78  73  85 SE5       30.09S HX  81
QUINCY         CLOUDY    78  73  84 SE5       30.07R HX  81
ROCKFORD       MOCLDY    72  60  66 E7        30.09F
$$


CITY           SKY/WX    TMP DP  RH WIND       PRES   REMARKS
BURLINGTON     PTCLDY    75  70  84 E7        30.08R
CEDAR RAPIDS   PTCLDY    69  65  86 E5        30.09S
DES MOINES     CLOUDY    73  68  84 CALM      30.08R
KIRKSVILLE     MOCLDY    74  70  87 NE3       30.09R
OTTUMWA        MOCLDY    73  69  87 NE5       30.08R
ST LOUIS       TSTM      76  68  76 NW7       30.10S
$$


CITY           SKY/WX    TMP DP  RH WIND       PRES   REMARKS
TERRE HAUTE    CLOUDY    77  72  84 N5        30.07R
EVANSVILLE     PTCLDY    85  69  58 N8        30.05R HX  89
INDIANAPOLIS   MOCLDY    79  68  69 N10       30.06R HX  81
LAFAYETTE      PTCLDY    73  64  73 N8        30.08R
MADISON        MOCLDY    69  60  73 N3        30.10F
MILWAUKEE      MOCLDY    66  60  81 E7        30.12F
$$





USA.gov is the U.S. government's official web portal to all federal, state and local government web resources and services.